User: anonymous   Login
Location: Dunedin
(45.8670°S, 170.5000°E)
Time: 02:34:07
(UTC+13:00)
Language:

SL-08 RB Rocket - Orbit

View from above orbital plane
View from above orbital plane
View from above satellite
View from above satellite

Ground track
Ground track

The orbit data is extracted from the following two-line orbital elements,

1 26387U 00033D   19079.92879722 +.00000072 +00000-0 +20460-4 0  9999
2 26387 097.8812 134.5312 0027899 094.3561 318.2869 14.68454899259747
Epoch (UTC): 20 March 2019 22:17:28
Eccentricity: 0.0027899
inclination: 97.8812°
perigee height: 646 km
apogee height: 685 km
right ascension of ascending node: 134.5312°
argument of perigee: 94.3561°
revolutions per day: 14.68454899
mean anomaly at epoch: 318.2869°
orbit number at epoch: 25974

The dashed part of the orbit path shows where the satellite is in the earth's shadow,  

DLR